Dewpoint
10 10 10 10 9 8 8 8 9 9 9 9 9 9 8 7 6 6 4 4 0 -0 -2 -0 1 1 -0 -1 -2 -3 -3 -4 -4 -5 -5 -6 -7 -8 -8 -8 -8 -9 -9
10 11 10 10 11 10 10 8 10 9 9 9 8 8 7 7 6 5 3 2 -0 -1 -1 1 1 -1 -1 -0 -1 -2 -3 -3 -4 -5 -5 -6 -7 -8 -9 -9 -9 -9 -9
10 11 12 11 11 10 10 10 9 9 9 8 8 8 7 5 4 3 2 -0 -2 -1 1 1 0 0 -1 -1 -1 -1 -1 -2 -3 -4 -6 -6 -6 -7 -8 -8 -9 -10 -11
10 10 11 11 11 10 10 9 9 8 8 8 7 6 6 5 4 3 2 -1 -1 1 1 -0 -0 -1 -1 -2 -2 -2 -2 -2 -2 -3 -4 -6 -6 -7 -8 -9 -10 -10 -12
10 11 12 11 9 9 8 8 8 8 7 7 7 6 5 4 4 2 -0 -0 -0 -0 -1 -1 -1 -1 -2 -2 -3 -3 -3 -3 -4 -4 -4 -6 -6 -7 -7 -9 -10 -11 -11
10 10 10 9 8 7 7 6 6 6 6 5 4 4 3 2 1 1 -1 -0 -1 -1 -0 -1 -1 -3 -4 -4 -5 -5 -6 -6 -6 -5 -7 -5 -5 -6 -7 -8 -8 -9 -9
9 8 8 7 6 6 6 5 4 3 2 0 -1 -0 -0 -1 -1 -1 -2 -2 -2 -1 -1 -4 -5 -5 -6 -6 -7 -7 -6 -6 -5 -5 -4 -5 -6 -6 -7 -7 -6 -8 -9
6 5 5 5 5 4 3 2 1 0 -0 -1 -0 -0 0 -0 -1 -1 -1 -2 -4 -11 -8 -4 -5 -6 -6 -6 -6 -6 -6 -7 -7 -6 -5 -5 -6 -6 -5 -6 -6 -7 -7
3 3 4 4 3 3 2 1 0 -0 1 1 0 -1 -1 -1 -2 -3 -4 -7 -10 -10 -9 -10 -9 -7 -7 -6 -5 -5 -5 -6 -7 -7 -9 -9 -7 -5 -5 -5 -7 -7 -7
3 3 2 2 2 2 1 1 1 1 -1 -4 -4 -3 -3 -4 -4 -4 -6 -7 -7 -9 -10 -12 -16 -19 -20 -15 -10 -7 -6 -6 -5 -5 -5 -6 -9 -8 -5 -5 -6 -7 -7
2 2 2 2 1 1 -1 -3 -3 -3 -3 -4 -5 -7 -5 -4 -5 -7 -7 -7 -10 -15 -21 -26 -31 -33 -34 -32 -26 -16 -12 -9 -10 -10 -10 -7 -6 -8 -7 -7 -6 -7 -8
1 1 1 -0 -2 -2 -4 -5 -6 -6 -5 -6 -6 -5 -4 -4 -4 -7 -11 -17 -18 -21 -32 -36 -37 -36 -35 -32 -20 -21 -24 -17 -13 -11 -12 -8 -8 -7 -6 -6 -6 -7 -8
0 -1 -4 -6 -6 -6 -5 -6 -6 -5 -5 -6 -9 -12 -9 -8 -9 -17 -20 -20 -32 -37 -37 -37 -35 -34 -25 -13 -11 -9 -8 -9 -8 -8 -8 -7 -7 -7 -6 -7 -7 -7 -7
-4 -5 -6 -6 -7 -7 -8 -10 -9 -11 -12 -14 -19 -18 -15 -16 -21 -26 -32 -37 -37 -36 -35 -34 -31 -19 -12 -12 -10 -10 -8 -7 -7 -7 -9 -8 -7 -7 -7 -7 -7 -7 -7
-5 -5 -6 -7 -10 -12 -12 -13 -16 -19 -25 -33 -32 -31 -34 -31 -34 -35 -35 -35 -33 -32 -30 -26 -17 -11 -13 -13 -13 -11 -10 -10 -10 -8 -7 -7 -7 -8 -8 -7 -7 -7 -8
-6 -7 -10 -14 -13 -13 -14 -16 -19 -21 -25 -30 -33 -32 -33 -34 -34 -32 -32 -31 -30 -25 -21 -15 -13 -13 -14 -14 -13 -13 -12 -11 -11 -11 -7 -8 -9 -8 -7 -7 -7 -7 -8
-8 -10 -11 -13 -14 -16 -15 -14 -13 -13 -14 -21 -26 -26 -28 -32 -32 -29 -29 -28 -23 -14 -13 -13 -13 -14 -14 -14 -14 -14 -14 -13 -11 -10 -8 -8 -8 -8 -8 -8 -7 -8 -8
-12 -14 -16 -17 -18 -21 -22 -21 -18 -14 -14 -15 -14 -14 -15 -19 -25 -27 -26 -22 -17 -17 -15 -14 -14 -14 -15 -14 -15 -15 -15 -14 -13 -11 -10 -8 -8 -8 -8 -8 -8 -8 -8
-18 -20 -20 -22 -26 -30 -32 -32 -28 -24 -20 -17 -15 -12 -12 -13 -17 -24 -14 -14 -14 -15 -15 -16 -16 -16 -16 -16 -16 -16 -16 -16 -14 -13 -11 -11 -9 -8 -8 -8 -8 -8 -8
-21 -15 -13 -15 -25 -31 -30 -28 -24 -21 -20 -18 -15 -13 -14 -17 -21 -23 -14 -15 -16 -16 -16 -17 -17 -17 -17 -17 -17 -17 -17 -16 -16 -14 -13 -12 -11 -9 -8 -9 -8 -8 -8
-7 -9 -16 -28 -28 -27 -27 -25 -23 -22 -21 -18 -16 -14 -14 -16 -19 -16 -15 -16 -16 -16 -17 -17 -17 -18 -18 -18 -18 -18 -18 -17 -17 -16 -14 -13 -12 -11 -9 -9 -9 -8 -8
-11 -19 -19 -21 -27 -27 -27 -26 -26 -23 -18 -16 -15 -15 -15 -16 -16 -16 -17 -17 -17 -18 -18 -18 -18 -19 -19 -19 -19 -19 -19 -19 -18 -17 -17 -16 -13 -12 -11 -10 -10 -9 -8
-12 -19 -26 -25 -26 -26 -25 -20 -19 -18 -16 -17 -17 -16 -16 -16 -17 -17 -17 -18 -18 -19 -19 -19 -19 -19 -20 -21 -20 -20 -20 -19 -18 -17 -17 -17 -16 -13 -12 -12 -11 -10 -9
-24 -27 -27 -25 -23 -22 -22 -18 -19 -16 -16 -16 -16 -17 -17 -17 -18 -18 -19 -19 -19 -19 -20 -20 -20 -21 -21 -20 -20 -19 -18 -18 -19 -19 -17 -16 -16 -15 -14 -12 -12 -11 -9
-18 -15 -16 -19 -19 -17 -16 -16 -16 -17 -17 -17 -18 -18 -18 -19 -19 -19 -20 -20 -20 -21 -21 -22 -22 -21 -20 -19 -19 -19 -19 -19 -18 -18 -17 -16 -16 -15 -14 -13 -12 -11 -10
-14 -15 -16 -17 -17 -16 -17 -17 -17 -18 -18 -18 -19 -19 -20 -20 -20 -21 -21 -21 -21 -22 -22 -22 -21 -20 -19 -19 -19 -19 -19 -18 -17 -17 -17 -17 -16 -15 -14 -14 -13 -11 -10
Wind_Speed
34 39 43 45 40 34 32 31 27 22 22 23 22 25 25 25 29 31 30 26 22 22 23 17 18 20 18 19 20 23 25 25 27 28 24 22 23 22 21 23 26 28 33
32 35 30 31 38 32 31 27 23 21 21 21 22 22 23 26 31 31 27 21 23 26 20 17 16 15 16 19 23 25 29 28 29 32 30 30 29 28 29 30 29 30 32
26 29 20 21 28 25 24 22 21 21 22 23 19 20 22 25 26 24 20 22 26 22 20 18 18 18 20 21 25 28 30 30 31 31 33 32 30 28 30 28 29 28 29
19 22 24 25 29 25 24 21 20 21 19 18 19 21 22 22 23 22 21 21 22 21 20 20 24 23 24 24 27 29 29 31 33 34 35 35 33 32 29 28 29 28 28
19 22 24 25 19 18 16 15 17 18 17 16 17 16 15 17 17 14 14 17 19 20 19 22 29 25 22 20 24 29 32 36 38 35 32 32 31 30 28 27 24 23 26
20 20 18 15 13 10 10 9 10 11 10 8 7 8 9 9 9 11 10 15 14 19 23 30 26 18 18 23 26 29 31 35 38 40 43 41 38 32 27 26 25 26 29
20 19 18 18 18 18 15 13 11 9 8 7 7 6 6 6 7 7 8 11 18 23 24 22 20 21 22 27 31 33 35 35 35 40 43 43 43 43 42 38 30 27 31
19 19 18 17 15 14 13 12 11 10 8 7 7 6 4 6 7 9 13 17 17 17 16 17 22 25 26 27 31 35 38 39 40 36 39 41 41 39 40 37 33 35 29
19 17 16 15 15 14 14 12 10 8 9 11 9 6 6 6 6 9 13 15 16 18 21 24 25 28 29 31 33 36 39 42 42 43 40 41 38 39 35 35 33 33 35
19 18 17 16 16 15 14 14 11 10 7 7 6 5 1 5 8 12 15 19 21 25 27 28 30 32 33 34 38 42 45 45 41 38 38 38 36 35 38 38 32 34 38
21 20 20 19 16 12 9 10 11 11 10 12 10 8 7 10 12 15 17 20 25 28 30 32 34 35 35 35 36 40 43 45 45 47 50 43 34 35 35 33 29 30 33
23 20 16 13 12 13 14 14 13 10 9 6 7 6 7 10 12 18 21 21 22 26 29 31 33 34 34 34 33 32 30 30 35 37 37 37 34 35 31 28 29 28 27
18 17 17 16 15 14 12 12 11 9 11 11 9 8 8 11 15 19 19 20 23 25 27 29 30 31 30 28 29 28 30 30 29 29 31 32 31 29 29 26 25 28 31
19 17 17 16 14 14 11 11 13 13 10 8 8 9 11 12 17 18 20 22 23 25 27 28 28 26 27 28 29 28 26 23 29 34 32 28 26 22 23 22 24 30 30
19 18 18 17 13 15 14 11 10 7 7 8 10 10 12 13 16 18 20 22 23 24 26 25 23 23 30 29 29 28 27 31 29 28 32 30 20 19 23 21 21 24 24
22 20 17 18 15 8 6 7 7 7 8 8 9 10 12 14 14 17 18 19 20 20 21 20 20 25 27 29 28 29 28 28 28 29 20 16 19 19 18 20 22 24 24
22 18 16 14 13 13 9 6 6 9 10 10 12 13 11 14 14 16 19 19 16 14 15 17 20 23 25 27 27 27 29 28 26 26 22 21 18 18 17 17 21 23 22
16 16 13 10 8 7 7 8 10 11 10 11 12 14 20 22 17 18 19 17 15 14 13 16 19 22 23 25 27 25 26 28 27 24 21 17 16 16 15 17 20 23 24
17 12 9 7 3 5 8 8 9 9 9 10 9 9 15 23 21 17 11 15 16 16 17 19 20 21 23 24 25 25 25 26 26 25 23 21 12 14 15 15 16 21 22
9 4 2 5 7 8 8 8 9 10 10 10 11 13 20 23 22 15 13 16 16 17 20 23 21 22 23 23 23 24 24 25 24 24 23 22 15 7 14 14 17 19 25
6 5 6 6 7 8 8 9 10 11 11 11 11 16 21 22 19 12 16 16 17 20 22 20 23 22 22 23 23 24 23 25 23 21 23 22 21 14 4 9 16 19 23
1 4 6 8 9 10 9 10 12 12 12 12 13 15 18 18 15 17 17 17 20 21 19 22 23 22 21 23 25 23 23 25 23 23 23 22 21 18 12 9 12 16 21
5 7 8 9 9 11 10 10 12 12 14 16 15 14 15 16 18 19 18 20 20 21 23 22 22 21 23 25 20 20 23 24 25 23 23 24 21 20 16 16 14 14 19
6 7 8 10 12 12 10 13 14 11 13 14 14 15 15 17 18 18 19 20 22 23 23 21 22 26 22 21 22 22 21 19 20 23 24 25 23 20 19 17 17 13 16
9 11 12 11 11 11 12 12 12 15 15 16 16 16 18 16 17 18 20 20 23 23 21 24 25 21 22 21 19 18 18 20 21 21 21 22 22 20 19 18 16 15 16
10 10 12 12 11 12 13 14 15 14 16 17 17 19 17 17 19 20 19 20 20 23 25 23 20 19 18 18 19 19 19 20 20 19 19 21 21 20 17 17 16 16 15
Wind_Direction
215 225 226 228 229 242 239 242 255 245 247 245 251 253 246 242 243 245 244 246 229 240 234 241 267 289 267 257 252 258 260 263 268 275 274 272 276 277 273 272 273 279 284
223 228 239 235 236 241 239 244 244 245 239 241 249 245 242 241 241 244 244 236 238 235 240 289 290 285 265 264 265 266 263 261 267 273 271 277 274 273 274 276 278 278 280
219 228 219 217 216 226 232 236 240 235 238 245 247 245 241 237 239 245 233 230 228 252 271 287 291 287 285 276 271 269 264 266 267 269 273 274 272 269 273 276 275 277 280
200 203 213 217 215 225 231 234 232 237 244 246 243 240 239 237 239 247 241 243 255 270 274 271 304 291 291 283 278 274 276 275 273 269 272 273 272 271 272 273 271 278 279
176 190 197 209 218 223 219 223 224 224 224 229 229 228 233 241 250 252 250 256 269 275 270 283 301 296 288 282 281 279 276 275 274 273 276 277 276 275 270 273 271 275 273
172 177 196 197 186 182 188 209 201 194 195 197 206 212 224 231 244 247 247 265 255 256 275 293 299 296 296 290 286 284 283 283 280 278 278 275 270 272 275 276 274 271 277
177 180 186 188 192 190 191 187 191 190 195 188 192 196 210 224 237 248 268 272 264 279 289 299 303 297 290 284 284 284 283 281 280 280 274 276 277 272 272 274 275 273 269
172 175 179 181 177 176 176 180 176 177 175 181 188 154 166 206 260 280 278 281 285 293 299 295 289 289 290 294 290 287 283 283 283 284 283 282 279 278 272 271 270 270 264
166 165 168 168 165 169 172 171 171 169 145 155 168 194 205 245 270 275 283 287 287 284 284 287 285 282 281 281 283 284 283 284 287 286 284 281 283 278 270 261 257 262 254
163 160 158 161 164 173 171 163 165 169 172 156 128 102 175 236 245 270 283 288 291 295 298 297 298 297 294 287 285 285 286 285 289 288 283 282 280 275 267 261 262 265 259
156 156 159 169 177 171 160 141 126 128 158 176 185 198 197 246 260 272 278 286 295 301 306 310 310 308 305 302 295 288 286 290 290 290 287 289 280 279 278 268 264 268 264
173 173 168 159 146 148 153 158 158 174 183 188 201 199 204 242 253 273 282 293 301 305 308 310 312 314 315 314 314 311 304 301 293 289 291 288 288 278 270 267 272 280 273
160 160 164 156 150 152 163 150 158 182 188 209 220 218 218 243 269 280 297 303 306 308 310 313 316 317 317 319 323 322 319 316 309 299 293 280 282 292 271 277 266 260 265
164 161 155 160 162 153 172 158 200 207 216 225 236 233 243 257 269 291 300 307 314 316 317 319 322 325 322 311 310 311 320 314 307 297 295 294 286 279 273 268 262 262 245
162 163 171 163 168 160 181 197 214 227 236 243 258 263 271 275 297 303 311 318 321 320 318 323 332 320 317 317 315 315 306 312 317 311 288 285 274 275 274 270 268 254 257
167 178 175 171 161 156 217 220 250 270 274 271 268 273 285 294 305 304 308 316 319 319 322 331 318 314 319 318 320 322 322 317 325 322 285 280 268 270 265 262 270 255 250
183 176 170 164 171 182 188 213 294 290 300 304 303 300 297 298 307 312 318 324 320 323 317 319 315 316 318 321 319 320 324 327 327 336 308 277 277 266 270 263 260 249 247
166 146 161 171 183 185 204 222 222 237 269 303 307 316 316 308 322 317 316 320 313 308 311 306 304 307 311 311 314 320 321 324 330 328 349 298 273 268 270 270 263 261 255
160 168 175 179 209 240 243 246 248 258 261 263 267 290 294 293 308 315 316 310 314 316 309 302 303 306 309 311 316 317 322 321 324 330 325 354 320 274 270 278 270 259 260
147 150 213 250 245 244 249 253 260 264 269 274 271 268 268 290 304 313 309 305 309 305 302 305 309 308 309 311 313 316 316 320 323 327 329 324 352 321 279 282 281 275 244
182 213 241 235 255 264 264 265 269 274 276 275 278 282 288 299 312 316 299 304 300 297 304 307 305 306 308 311 311 311 316 314 320 322 319 322 316 340 357 302 291 276 252
247 248 261 265 266 267 272 274 276 278 279 281 274 273 285 303 306 294 297 296 296 302 302 299 302 306 309 305 307 313 311 312 316 313 315 314 316 313 311 295 296 297 252
277 272 268 273 275 280 282 281 282 284 279 280 284 289 291 292 292 297 298 300 304 302 301 303 306 307 307 308 311 308 307 306 307 313 312 312 310 310 301 288 285 318 251
285 283 280 283 287 292 289 281 292 287 289 291 288 289 287 287 292 295 299 299 298 299 303 305 308 312 309 309 306 309 311 314 318 309 307 306 304 302 297 288 278 281 258
301 300 300 297 294 299 300 300 288 284 285 286 289 285 286 290 293 291 291 295 296 302 302 311 310 310 309 311 314 314 313 307 308 309 307 303 301 298 293 286 285 260 290
310 307 304 301 298 290 285 285 287 285 285 288 285 287 292 289 289 292 295 297 301 300 310 312 315 316 316 317 318 314 310 304 301 302 303 302 301 295 288 282 275 250 288
Height
1482 1483 1488 1491 1493 1498 1500 1500 1503 1506 1506 1508 1510 1512 1513 1515 1516 1517 1517 1519 1521 1523 1525 1527 1527 1528 1528 1526 1526 1526 1525 1524 1521 1519 1520 1520 1518 1517 1516 1513 1512 1509 1507
1476 1477 1483 1488 1489 1490 1494 1497 1499 1500 1502 1503 1505 1507 1508 1509 1510 1511 1513 1515 1515 1517 1521 1522 1522 1523 1522 1521 1521 1520 1519 1518 1517 1513 1513 1511 1510 1510 1508 1506 1505 1503 1500
1471 1473 1478 1483 1486 1486 1487 1491 1493 1495 1498 1498 1500 1501 1503 1503 1506 1509 1509 1510 1510 1514 1516 1517 1518 1518 1516 1515 1514 1513 1511 1511 1510 1507 1504 1503 1502 1501 1500 1498 1496 1495 1493
1469 1473 1475 1478 1482 1483 1484 1487 1489 1491 1492 1493 1495 1497 1498 1499 1501 1503 1504 1507 1511 1511 1511 1512 1512 1511 1510 1509 1507 1506 1505 1504 1503 1500 1497 1494 1494 1493 1491 1490 1488 1488 1486
1465 1468 1470 1473 1477 1479 1481 1483 1484 1486 1488 1489 1491 1492 1493 1495 1498 1500 1503 1505 1507 1507 1507 1508 1507 1506 1504 1503 1502 1500 1500 1498 1496 1493 1489 1487 1485 1485 1484 1483 1481 1480 1480
1462 1465 1468 1470 1473 1476 1476 1478 1480 1482 1484 1486 1488 1490 1492 1494 1496 1499 1501 1503 1504 1504 1504 1503 1501 1499 1498 1497 1496 1495 1493 1489 1486 1484 1480 1478 1477 1477 1477 1475 1473 1472 1471
1459 1462 1465 1468 1470 1472 1475 1477 1478 1480 1481 1484 1486 1488 1491 1493 1496 1498 1500 1501 1502 1502 1500 1498 1497 1496 1495 1492 1489 1486 1483 1481 1479 1475 1471 1469 1467 1467 1467 1466 1465 1464 1463
1457 1460 1462 1466 1468 1470 1473 1474 1476 1478 1480 1482 1485 1487 1490 1491 1493 1495 1496 1495 1495 1494 1493 1493 1491 1489 1488 1486 1481 1476 1472 1470 1468 1466 1462 1459 1458 1456 1456 1456 1456 1455 1456
1455 1457 1460 1463 1465 1467 1469 1472 1474 1476 1478 1480 1483 1485 1487 1489 1490 1490 1490 1490 1489 1488 1487 1485 1483 1480 1478 1475 1470 1465 1461 1457 1457 1455 1453 1450 1448 1446 1446 1447 1446 1446 1444
1452 1455 1458 1462 1464 1465 1468 1470 1472 1475 1477 1480 1481 1483 1485 1485 1485 1485 1484 1483 1482 1482 1480 1478 1476 1474 1470 1466 1462 1457 1451 1448 1446 1443 1441 1440 1437 1437 1437 1436 1437 1437 1438
1452 1455 1458 1460 1462 1464 1467 1469 1472 1475 1477 1478 1480 1481 1482 1479 1480 1480 1479 1477 1476 1474 1471 1468 1466 1464 1460 1457 1454 1448 1444 1440 1436 1433 1430 1429 1428 1426 1427 1427 1429 1430 1430
1449 1452 1455 1457 1460 1463 1465 1468 1471 1472 1474 1475 1476 1477 1478 1476 1475 1474 1472 1471 1470 1467 1463 1460 1457 1455 1451 1447 1442 1437 1433 1431 1427 1424 1421 1419 1419 1418 1418 1419 1419 1421 1422
1447 1450 1452 1456 1460 1462 1464 1466 1468 1469 1470 1471 1472 1472 1473 1472 1469 1468 1468 1466 1464 1461 1457 1453 1450 1447 1444 1439 1435 1431 1428 1424 1420 1416 1413 1411 1411 1411 1411 1411 1412 1413 1415
1446 1449 1452 1455 1458 1460 1462 1464 1464 1465 1466 1468 1468 1468 1467 1467 1465 1464 1462 1459 1457 1454 1451 1448 1444 1441 1439 1435 1429 1426 1423 1418 1415 1410 1406 1404 1404 1405 1405 1406 1407 1408 1408
1444 1447 1450 1453 1455 1457 1458 1459 1461 1461 1462 1462 1463 1463 1463 1461 1460 1458 1455 1453 1450 1447 1444 1441 1437 1436 1432 1428 1424 1421 1417 1412 1408 1404 1399 1399 1399 1400 1400 1400 1401 1402 1403
1439 1442 1444 1449 1452 1454 1455 1457 1459 1459 1459 1459 1458 1458 1457 1456 1455 1455 1452 1449 1446 1443 1440 1437 1435 1433 1429 1425 1421 1416 1412 1406 1402 1398 1393 1394 1394 1394 1395 1396 1396 1396 1398
1435 1439 1443 1447 1448 1449 1453 1455 1456 1456 1455 1455 1455 1454 1454 1453 1450 1449 1445 1443 1441 1440 1437 1434 1432 1429 1425 1422 1418 1414 1408 1404 1399 1395 1391 1390 1390 1390 1391 1391 1391 1392 1393
1436 1437 1439 1443 1446 1448 1449 1451 1452 1453 1453 1452 1450 1449 1446 1445 1445 1444 1441 1439 1438 1435 1432 1430 1427 1424 1422 1418 1413 1409 1404 1401 1395 1392 1387 1384 1385 1385 1386 1386 1387 1387 1388
1435 1436 1439 1441 1443 1445 1446 1447 1448 1448 1449 1449 1448 1447 1443 1441 1442 1440 1438 1435 1433 1430 1428 1426 1423 1420 1417 1414 1410 1406 1401 1398 1393 1389 1386 1381 1379 1381 1381 1382 1382 1382 1383
1436 1437 1438 1440 1441 1443 1443 1445 1445 1444 1445 1445 1444 1442 1439 1439 1437 1436 1434 1431 1428 1426 1424 1421 1418 1415 1412 1408 1404 1402 1397 1393 1389 1387 1383 1380 1376 1374 1377 1377 1378 1377 1377
1435 1437 1438 1438 1439 1440 1440 1440 1441 1441 1440 1440 1440 1437 1435 1433 1431 1430 1428 1426 1424 1421 1419 1416 1413 1410 1407 1404 1400 1396 1393 1389 1386 1383 1380 1376 1375 1371 1370 1372 1373 1372 1372
1434 1437 1437 1437 1436 1435 1436 1435 1436 1437 1437 1435 1435 1434 1432 1430 1428 1425 1423 1421 1418 1416 1413 1410 1407 1404 1402 1398 1395 1391 1388 1385 1382 1379 1376 1373 1371 1369 1368 1368 1368 1368 1368
1434 1436 1435 1434 1433 1433 1432 1431 1431 1432 1431 1430 1429 1428 1427 1426 1423 1420 1418 1415 1413 1410 1408 1404 1401 1397 1395 1393 1390 1388 1384 1381 1378 1376 1372 1369 1368 1366 1365 1365 1364 1363 1364
1432 1433 1433 1432 1430 1430 1428 1427 1427 1427 1427 1426 1424 1423 1422 1420 1417 1415 1413 1410 1408 1405 1402 1398 1395 1392 1389 1386 1384 1381 1379 1376 1374 1371 1369 1366 1363 1363 1361 1361 1360 1360 1360
1430 1430 1429 1429 1428 1426 1426 1425 1426 1425 1424 1421 1420 1418 1416 1414 1412 1409 1407 1405 1402 1399 1396 1393 1389 1385 1383 1380 1378 1376 1373 1371 1369 1367 1364 1361 1359 1358 1357 1356 1355 1356 1356
1427 1426 1425 1425 1424 1423 1422 1421 1420 1419 1419 1417 1415 1412 1410 1408 1405 1403 1401 1399 1396 1392 1390 1387 1383 1380 1378 1375 1372 1370 1368 1365 1363 1361 1358 1356 1353 1352 1351 1350 1350 1350 1350